Weather WX

World > North America > United States > Pennsylvania

Baldwin, Pennsylvania Regional Weather

Lat: 40.36N, Lon: 79.97W
Wx Zone: PAZ021
Feedback

Baldwin, PA Regional Weather

Expires:201906270300;;134920
ASUS41 KPHI 270212
RWRPHI

REGIONAL WEATHER ROUNDUP
NATIONAL WEATHER SERVICE MOUNT HOLLY NJ
1000 PM EDT WED JUN 26 2019

NOTE:  "FAIR" INDICATES FEW OR NO CLOUDS BELOW 12,000 FEET WITH NO
SIGNIFICANT WEATHER AND/OR OBSTRUCTIONS TO VISIBILITY.

 * = STATION DOES NOT REPORT PRECIPITATION (E.G. RAIN, SNOW, ETC.) 
        OR FOG.


PAZ001-021-NYZ056-072-MDZ011-DCZ001-270300-
OTHER NEARBY LOCATIONS
  
CITY           SKY/WX    TMP DP  RH WIND       PRES   REMARKS
HARRISBURG     MOCLDY    76  67  73 CALM      30.04R                  
STATE COLLEGE  CLEAR     77  61  57 NW8       30.10S                  
WILLIAMSPORT   FAIR      71  66  84 CALM      30.05R                  
BINGHAMTON     FAIR      72  57  59 NW5       30.10R                  
NEW YORK CITY  FAIR      83  60  45 W3        30.05S                  
BALTIMORE      FAIR      76  66  71 W5        30.05R                  
WASHINGTON DC  MOCLDY    83  63  50 SW8       30.07R                  

$$
  

SKY/WX - Weather  TMP - Temperature  DP - Dew Point  RH - Relative Humidity
WIND - Wind Direction/Speed PRES - Barometric Pressure VSB - Visibility
WCI - Wind Chill Index E13G22 Wind - East Wind 13 mph/Gusts of 22 mph